Time,TemperatureF,DewpointF,PressureIn,WindDirection,WindDirectionDegrees,WindSpeedMPH,WindSpeedGustMPH,Humidity,HourlyPrecipIn,Conditions,Clouds,dailyrainin,SoftwareType,DateUTC
2013-01-18 00:01:00,13.0,3.1,30.31,WNW,284,9.0,13.0,64,0.00,,BKN045,0.00,VWS V14.01,2013-01-18 05:01:00,
2013-01-18 00:02:00,13.0,3.1,30.31,WNW,293,9.0,10.0,64,0.00,,BKN048,0.00,VWS V14.01,2013-01-18 05:02:00,
2013-01-18 00:03:00,13.1,3.2,30.31,NW,315,5.0,11.0,64,0.00,,BKN048,0.00,VWS V14.01,2013-01-18 05:03:00,
2013-01-18 00:08:00,13.2,3.3,30.31,NNW,334,5.0,7.0,64,0.00,,BKN048,0.00,VWS V14.01,2013-01-18 05:08:00,
2013-01-18 00:13:00,13.2,3.3,30.31,WSW,250,9.0,9.0,64,0.00,,BKN048,0.00,VWS V14.01,2013-01-18 05:13:00,
2013-01-18 00:18:00,13.3,3.4,30.31,NW,319,8.0,13.0,64,0.00,,BKN048,0.00,VWS V14.01,2013-01-18 05:18:00,
2013-01-18 00:23:00,13.4,3.5,30.31,NW,315,4.0,5.0,64,0.00,,BKN048,0.00,VWS V14.01,2013-01-18 05:23:00,
2013-01-18 00:28:00,13.5,3.6,30.31,WNW,283,5.0,6.0,64,0.00,,BKN048,0.00,VWS V14.01,2013-01-18 05:28:00,
2013-01-18 00:34:00,13.6,3.7,30.31,WNW,289,4.0,10.0,64,0.00,,BKN048,0.00,VWS V14.01,2013-01-18 05:34:00,
2013-01-18 00:39:00,13.7,4.1,30.31,NW,325,10.0,14.0,65,0.00,,BKN048,0.00,VWS V14.01,2013-01-18 05:39:00,
2013-01-18 00:44:00,13.7,3.8,30.31,WNW,283,7.0,17.0,64,0.00,,BKN048,0.00,VWS V14.01,2013-01-18 05:44:00,
2013-01-18 00:49:00,13.6,3.7,30.31,NW,313,2.0,4.0,64,0.00,,BKN048,0.00,VWS V14.01,2013-01-18 05:49:00,
2013-01-18 00:54:00,13.7,4.5,30.31,NW,313,2.0,4.0,66,0.00,,BKN048,0.00,VWS V14.01,2013-01-18 05:54:00,
2013-01-18 00:59:00,13.7,4.5,30.31,NNW,342,6.0,11.0,66,0.00,,BKN048,0.00,VWS V14.01,2013-01-18 05:59:00,
2013-01-18 01:04:00,13.8,4.9,30.31,WNW,284,6.0,6.0,67,0.00,,BKN047,0.00,VWS V14.01,2013-01-18 06:04:00,
2013-01-18 01:09:00,13.8,5.2,30.32,NNW,342,2.0,6.0,68,0.00,,BKN047,0.00,VWS V14.01,2013-01-18 06:09:00,
2013-01-18 01:14:00,13.8,4.9,30.31,NW,311,10.0,16.0,67,0.00,,BKN047,0.00,VWS V14.01,2013-01-18 06:14:00,
2013-01-18 01:19:00,13.8,4.2,30.32,WNW,294,4.0,10.0,65,0.00,,BKN047,0.00,VWS V14.01,2013-01-18 06:19:00,
2013-01-18 01:24:00,13.8,4.2,30.32,NNW,335,4.0,11.0,65,0.00,,BKN047,0.00,VWS V14.01,2013-01-18 06:24:00,
2013-01-18 01:29:00,13.8,4.2,30.32,NW,307,6.0,12.0,65,0.00,,BKN047,0.00,VWS V14.01,2013-01-18 06:29:00,
2013-01-18 01:34:00,13.7,3.8,30.32,WSW,246,9.0,12.0,64,0.00,,BKN047,0.00,VWS V14.01,2013-01-18 06:34:00,
2013-01-18 01:39:00,13.8,4.2,30.32,NNW,346,7.0,8.0,65,0.00,,BKN047,0.00,VWS V14.01,2013-01-18 06:39:00,
2013-01-18 01:44:00,13.8,4.2,30.32,NW,308,4.0,9.0,65,0.00,,BKN047,0.00,VWS V14.01,2013-01-18 06:44:00,
2013-01-18 01:49:00,13.9,4.7,30.33,NW,326,10.0,10.0,66,0.00,,BKN047,0.00,VWS V14.01,2013-01-18 06:49:00,
2013-01-18 01:54:00,14.0,4.4,30.33,NNW,337,7.0,10.0,65,0.00,,BKN047,0.00,VWS V14.01,2013-01-18 06:54:00,
2013-01-18 01:59:00,14.0,4.4,30.32,WNW,293,8.0,10.0,65,0.00,,BKN047,0.00,VWS V14.01,2013-01-18 06:59:00,
2013-01-18 02:04:00,14.0,3.7,30.32,WNW,299,7.0,9.0,63,0.00,,BKN050,0.00,VWS V14.01,2013-01-18 07:04:00,
2013-01-18 02:09:00,14.0,4.1,30.33,NW,324,4.0,10.0,64,0.00,,BKN050,0.00,VWS V14.01,2013-01-18 07:09:00,
2013-01-18 02:14:00,14.0,4.8,30.33,WNW,294,5.0,13.0,66,0.00,,BKN050,0.00,VWS V14.01,2013-01-18 07:14:00,
2013-01-18 02:19:00,14.1,4.5,30.32,West,272,7.0,7.0,65,0.00,,BKN050,0.00,VWS V14.01,2013-01-18 07:19:00,
2013-01-18 02:24:00,14.1,4.8,30.33,NNW,327,8.0,10.0,66,0.00,,BKN050,0.00,VWS V14.01,2013-01-18 07:24:00,
2013-01-18 02:29:00,13.9,4.7,30.33,NNW,327,3.0,3.0,66,0.00,,BKN050,0.00,VWS V14.01,2013-01-18 07:29:00,
2013-01-18 02:34:00,13.8,4.6,30.33,NNW,335,6.0,7.0,66,0.00,,BKN050,0.00,VWS V14.01,2013-01-18 07:34:00,
2013-01-18 02:39:00,13.6,4.4,30.33,NNW,336,4.0,10.0,66,0.00,,BKN050,0.00,VWS V14.01,2013-01-18 07:39:00,
2013-01-18 02:44:00,13.7,4.8,30.33,NW,313,3.0,3.0,67,0.00,,BKN050,0.00,VWS V14.01,2013-01-18 07:44:00,
2013-01-18 02:49:00,13.8,5.2,30.34,NW,317,7.0,11.0,68,0.00,,BKN050,0.00,VWS V14.01,2013-01-18 07:49:00,
2013-01-18 02:54:00,13.9,4.3,30.34,NNW,332,9.0,9.0,65,0.00,,BKN050,0.00,VWS V14.01,2013-01-18 07:54:00,
2013-01-18 02:59:00,14.0,4.8,30.34,NNW,329,6.0,11.0,66,0.00,,BKN050,0.00,VWS V14.01,2013-01-18 07:59:00,
2013-01-18 03:04:00,14.0,4.8,30.34,WNW,292,5.0,9.0,66,0.00,,BKN042,0.00,VWS V14.01,2013-01-18 08:04:00,
2013-01-18 03:09:00,14.1,4.8,30.34,NW,304,3.0,6.0,66,0.00,,BKN042,0.00,VWS V14.01,2013-01-18 08:09:00,
2013-01-18 03:14:00,14.1,4.8,30.34,NW,310,8.0,15.0,66,0.00,,BKN042,0.00,VWS V14.01,2013-01-18 08:14:00,
2013-01-18 03:19:00,14.2,4.9,30.34,WNW,298,3.0,9.0,66,0.00,,BKN042,0.00,VWS V14.01,2013-01-18 08:19:00,
2013-01-18 03:24:00,14.3,5.0,30.34,NW,308,3.0,7.0,66,0.00,,BKN042,0.00,VWS V14.01,2013-01-18 08:24:00,
2013-01-18 03:29:00,14.3,5.0,30.34,NW,304,4.0,7.0,66,0.00,,BKN042,0.00,VWS V14.01,2013-01-18 08:29:00,
2013-01-18 03:34:00,14.3,5.0,30.34,NNW,335,4.0,8.0,66,0.00,,BKN042,0.00,VWS V14.01,2013-01-18 08:34:00,
2013-01-18 03:39:00,14.3,4.7,30.34,NNW,341,4.0,13.0,65,0.00,,BKN042,0.00,VWS V14.01,2013-01-18 08:39:00,
2013-01-18 03:44:00,14.3,4.4,30.34,WNW,298,7.0,11.0,64,0.00,,BKN042,0.00,VWS V14.01,2013-01-18 08:44:00,
2013-01-18 03:49:00,14.3,4.0,30.34,NW,314,8.0,12.0,63,0.00,,BKN042,0.00,VWS V14.01,2013-01-18 08:49:00,
2013-01-18 03:54:00,14.3,3.7,30.34,NW,315,5.0,9.0,62,0.00,,BKN042,0.00,VWS V14.01,2013-01-18 08:54:00,
2013-01-18 03:59:00,14.2,3.6,30.34,WNW,298,4.0,4.0,62,0.00,,BKN042,0.00,VWS V14.01,2013-01-18 08:59:00,
2013-01-18 04:04:00,14.2,3.9,30.34,WNW,300,6.0,8.0,63,0.00,,,0.00,VWS V14.01,2013-01-18 09:04:00,
2013-01-18 04:09:00,14.3,4.7,30.34,NNW,335,6.0,11.0,65,0.00,,,0.00,VWS V14.01,2013-01-18 09:09:00,
2013-01-18 04:14:00,14.4,4.8,30.33,NW,306,4.0,6.0,65,0.00,,,0.00,VWS V14.01,2013-01-18 09:14:00,
2013-01-18 04:19:00,14.6,5.0,30.33,NW,317,5.0,6.0,65,0.00,,,0.00,VWS V14.01,2013-01-18 09:19:00,
2013-01-18 04:24:00,14.6,5.0,30.33,NW,321,4.0,6.0,65,0.00,,,0.00,VWS V14.01,2013-01-18 09:24:00,
2013-01-18 04:30:00,14.7,5.4,30.33,WNW,287,6.0,6.0,66,0.00,,,0.00,VWS V14.01,2013-01-18 09:30:00,
2013-01-18 04:35:00,14.7,5.8,30.33,NW,304,6.0,8.0,67,0.00,,,0.00,VWS V14.01,2013-01-18 09:35:00,
2013-01-18 04:40:00,14.8,6.2,30.33,NW,304,3.0,5.0,68,0.00,,,0.00,VWS V14.01,2013-01-18 09:40:00,
2013-01-18 04:45:00,14.9,6.6,30.32,West,271,5.0,8.0,69,0.00,,,0.00,VWS V14.01,2013-01-18 09:45:00,
2013-01-18 04:50:00,14.9,6.6,30.32,WNW,296,5.0,9.0,69,0.00,,,0.00,VWS V14.01,2013-01-18 09:50:00,
2013-01-18 04:55:00,14.9,6.3,30.32,WNW,282,5.0,9.0,68,0.00,,,0.00,VWS V14.01,2013-01-18 09:55:00,
2013-01-18 05:00:00,14.9,5.9,30.32,West,277,3.0,4.0,67,0.00,,,0.00,VWS V14.01,2013-01-18 10:00:00,
2013-01-18 05:05:00,14.8,6.2,30.32,WSW,248,4.0,5.0,68,0.00,,OVC036,0.00,VWS V14.01,2013-01-18 10:05:00,
2013-01-18 05:10:00,14.9,6.3,30.32,WSW,244,3.0,5.0,68,0.00,,OVC036,0.00,VWS V14.01,2013-01-18 10:10:00,
2013-01-18 05:15:00,14.8,6.2,30.32,NW,304,3.0,3.0,68,0.00,,OVC036,0.00,VWS V14.01,2013-01-18 10:15:00,
2013-01-18 05:20:00,14.8,5.8,30.32,WNW,302,1.0,3.0,67,0.00,,OVC036,0.00,VWS V14.01,2013-01-18 10:20:00,
2013-01-18 05:25:00,14.8,5.2,30.32,WNW,302,4.0,9.0,65,0.00,,OVC036,0.00,VWS V14.01,2013-01-18 10:25:00,
2013-01-18 05:30:00,14.8,5.2,30.32,West,261,4.0,6.0,65,0.00,,OVC036,0.00,VWS V14.01,2013-01-18 10:30:00,
2013-01-18 05:35:00,14.8,4.8,30.32,West,273,2.0,3.0,64,0.00,,OVC036,0.00,VWS V14.01,2013-01-18 10:35:00,
2013-01-18 05:40:00,14.8,5.2,30.32,West,259,4.0,6.0,65,0.00,,OVC036,0.00,VWS V14.01,2013-01-18 10:40:00,
2013-01-18 05:45:00,14.8,4.8,30.32,West,268,3.0,6.0,64,0.00,,OVC036,0.00,VWS V14.01,2013-01-18 10:45:00,
2013-01-18 05:50:00,14.7,5.1,30.32,NW,304,4.0,6.0,65,0.00,,OVC036,0.00,VWS V14.01,2013-01-18 10:50:00,
2013-01-18 05:55:00,14.7,5.1,30.32,WNW,291,3.0,4.0,65,0.00,,OVC036,0.00,VWS V14.01,2013-01-18 10:55:00,
2013-01-18 06:00:00,14.8,5.5,30.32,WNW,303,2.0,3.0,66,0.00,,OVC036,0.00,VWS V14.01,2013-01-18 11:00:00,
2013-01-18 06:05:00,14.7,5.4,30.32,West,267,2.0,6.0,66,0.00,,OVC038,0.00,VWS V14.01,2013-01-18 11:05:00,
2013-01-18 06:10:00,14.8,5.5,30.32,West,260,6.0,7.0,66,0.00,,OVC038,0.00,VWS V14.01,2013-01-18 11:10:00,
2013-01-18 06:15:00,14.8,5.5,30.32,West,271,4.0,6.0,66,0.00,,OVC038,0.00,VWS V14.01,2013-01-18 11:15:00,
2013-01-18 06:20:00,14.8,5.5,30.31,WNW,295,6.0,6.0,66,0.00,,OVC038,0.00,VWS V14.01,2013-01-18 11:20:00,
2013-01-18 06:25:00,14.9,5.6,30.33,NW,308,1.0,2.0,66,0.00,,OVC038,0.00,VWS V14.01,2013-01-18 11:25:00,
2013-01-18 06:30:00,14.9,5.9,30.32,WSW,245,4.0,5.0,67,0.00,,OVC038,0.00,VWS V14.01,2013-01-18 11:30:00,
2013-01-18 06:35:00,15.0,6.0,30.32,NW,326,2.0,5.0,67,0.00,,OVC038,0.00,VWS V14.01,2013-01-18 11:35:00,
2013-01-18 06:40:00,15.1,6.5,30.32,NW,313,1.0,5.0,68,0.00,,OVC038,0.00,VWS V14.01,2013-01-18 11:40:00,
2013-01-18 06:45:00,15.2,6.6,30.31,West,263,4.0,5.0,68,0.00,,OVC038,0.00,VWS V14.01,2013-01-18 11:45:00,
2013-01-18 06:50:00,15.2,6.6,30.31,NW,304,4.0,6.0,68,0.00,,OVC038,0.00,VWS V14.01,2013-01-18 11:50:00,
2013-01-18 06:55:00,15.3,7.0,30.31,West,274,3.0,4.0,69,0.00,,OVC038,0.00,VWS V14.01,2013-01-18 11:55:00,
2013-01-18 07:00:00,15.3,7.3,30.31,WSW,258,1.0,3.0,70,0.00,,OVC038,0.00,VWS V14.01,2013-01-18 12:00:00,
2013-01-18 07:05:00,15.3,7.3,30.31,WSW,243,3.0,4.0,70,0.00,,OVC036,0.00,VWS V14.01,2013-01-18 12:05:00,
2013-01-18 07:10:00,15.3,7.6,30.31,SW,236,3.0,4.0,71,0.00,,OVC036,0.00,VWS V14.01,2013-01-18 12:10:00,
2013-01-18 07:15:00,15.2,7.5,30.30,WSW,244,3.0,3.0,71,0.00,,OVC036,0.00,VWS V14.01,2013-01-18 12:15:00,
2013-01-18 07:20:00,15.2,7.5,30.30,SSW,212,3.0,4.0,71,0.00,,OVC036,0.00,VWS V14.01,2013-01-18 12:20:00,
2013-01-18 07:25:00,15.2,7.8,30.30,SW,223,2.0,3.0,72,0.00,,OVC036,0.00,VWS V14.01,2013-01-18 12:25:00,
2013-01-18 07:30:00,15.2,7.8,30.30,WSW,238,4.0,4.0,72,0.00,,OVC036,0.00,VWS V14.01,2013-01-18 12:30:00,
2013-01-18 07:35:00,15.2,7.5,30.30,SSW,209,5.0,5.0,71,0.00,,OVC036,0.00,VWS V14.01,2013-01-18 12:35:00,
2013-01-18 07:40:00,15.2,7.5,30.30,SSW,209,5.0,5.0,71,0.00,,OVC036,0.00,VWS V14.01,2013-01-18 12:40:00,
2013-01-18 07:45:00,15.3,7.6,30.30,West,271,0.0,3.0,71,0.00,,OVC036,0.00,VWS V14.01,2013-01-18 12:45:00,
2013-01-18 07:50:00,15.3,7.3,30.30,West,261,10.0,10.0,70,0.00,,OVC036,0.00,VWS V14.01,2013-01-18 12:50:00,
2013-01-18 07:55:00,15.5,7.5,30.30,WSW,241,5.0,7.0,70,0.00,,OVC036,0.00,VWS V14.01,2013-01-18 12:55:00,
2013-01-18 08:00:00,15.6,7.3,30.30,West,279,2.0,3.0,69,0.00,,OVC036,0.00,VWS V14.01,2013-01-18 13:00:00,
2013-01-18 08:05:00,15.7,7.3,30.30,WSW,240,3.0,4.0,69,0.00,,OVC032,0.00,VWS V14.01,2013-01-18 13:05:00,
2013-01-18 08:10:00,15.7,7.7,30.30,West,261,1.0,3.0,70,0.00,,OVC032,0.00,VWS V14.01,2013-01-18 13:10:00,
2013-01-18 08:15:00,15.7,7.3,30.30,WSW,256,3.0,4.0,69,0.00,,OVC032,0.00,VWS V14.01,2013-01-18 13:15:00,
2013-01-18 08:20:00,15.7,7.3,30.29,WNW,291,2.0,3.0,69,0.00,,OVC032,0.00,VWS V14.01,2013-01-18 13:20:00,
2013-01-18 08:25:00,15.7,7.3,30.29,WSW,240,2.0,2.0,69,0.00,,OVC032,0.00,VWS V14.01,2013-01-18 13:25:00,
2013-01-18 08:30:00,15.7,7.3,30.29,WSW,252,2.0,3.0,69,0.00,,OVC032,0.00,VWS V14.01,2013-01-18 13:30:00,
2013-01-18 08:35:00,15.7,7.3,30.28,SW,227,2.0,3.0,69,0.00,,OVC032,0.00,VWS V14.01,2013-01-18 13:35:00,
2013-01-18 08:41:00,15.8,7.4,30.28,WSW,258,2.0,3.0,69,0.00,,OVC032,0.00,VWS V14.01,2013-01-18 13:41:00,
2013-01-18 08:46:00,15.9,7.5,30.28,WSW,249,3.0,4.0,69,0.00,,OVC032,0.00,VWS V14.01,2013-01-18 13:46:00,
2013-01-18 08:51:00,15.9,7.5,30.28,WSW,242,2.0,4.0,69,0.00,,OVC032,0.00,VWS V14.01,2013-01-18 13:51:00,
2013-01-18 08:56:00,16.0,7.6,30.28,SSW,211,1.0,3.0,69,0.00,,OVC032,0.00,VWS V14.01,2013-01-18 13:56:00,
2013-01-18 09:01:00,16.1,7.7,30.28,WSW,238,2.0,4.0,69,0.00,,OVC032,0.00,VWS V14.01,2013-01-18 14:01:00,
2013-01-18 09:06:00,16.2,7.8,30.28,SW,214,3.0,3.0,69,0.00,,OVC110,0.00,VWS V14.01,2013-01-18 14:06:00,
2013-01-18 09:11:00,16.3,7.9,30.28,WSW,240,2.0,3.0,69,0.00,,OVC110,0.00,VWS V14.01,2013-01-18 14:11:00,
2013-01-18 09:16:00,16.4,8.0,30.28,SSW,202,1.0,2.0,69,0.00,,OVC110,0.00,VWS V14.01,2013-01-18 14:16:00,
2013-01-18 09:21:00,16.6,8.2,30.28,WSW,241,1.0,3.0,69,0.00,,OVC110,0.00,VWS V14.01,2013-01-18 14:21:00,
2013-01-18 09:26:00,16.7,8.6,30.29,SW,225,4.0,4.0,70,0.00,,OVC110,0.00,VWS V14.01,2013-01-18 14:26:00,
2013-01-18 09:31:00,17.0,8.9,30.29,SW,222,1.0,2.0,70,0.00,,OVC110,0.00,VWS V14.01,2013-01-18 14:31:00,
2013-01-18 09:36:00,17.2,9.1,30.28,West,261,1.0,3.0,70,0.00,,OVC110,0.00,VWS V14.01,2013-01-18 14:36:00,
2013-01-18 09:41:00,17.5,9.4,30.28,WSW,256,3.0,3.0,70,0.00,,OVC110,0.00,VWS V14.01,2013-01-18 14:41:00,
2013-01-18 09:46:00,17.6,9.5,30.29,WSW,248,2.0,2.0,70,0.00,,OVC110,0.00,VWS V14.01,2013-01-18 14:46:00,
2013-01-18 09:51:00,17.8,9.7,30.28,WSW,258,2.0,3.0,70,0.00,,OVC110,0.00,VWS V14.01,2013-01-18 14:51:00,
2013-01-18 09:56:00,18.0,10.2,30.28,SW,225,3.0,4.0,71,0.00,,OVC110,0.00,VWS V14.01,2013-01-18 14:56:00,
2013-01-18 10:01:00,18.2,10.1,30.28,SSW,213,4.0,5.0,70,0.00,,OVC110,0.00,VWS V14.01,2013-01-18 15:01:00,
2013-01-18 10:06:00,18.2,10.7,30.28,SSE,159,2.0,5.0,72,0.00,,,0.00,VWS V14.01,2013-01-18 15:06:00,
2013-01-18 10:11:00,18.0,10.8,30.28,SW,234,5.0,6.0,73,0.00,,,0.00,VWS V14.01,2013-01-18 15:11:00,
2013-01-18 10:16:00,17.9,11.3,30.28,SW,220,7.0,8.0,75,0.00,,,0.00,VWS V14.01,2013-01-18 15:16:00,
2013-01-18 10:21:00,17.8,11.8,30.27,SSW,209,4.0,6.0,77,0.00,,,0.00,VWS V14.01,2013-01-18 15:21:00,
2013-01-18 10:26:00,17.6,12.2,30.28,South,176,4.0,9.0,79,0.00,,,0.00,VWS V14.01,2013-01-18 15:26:00,
2013-01-18 10:31:00,17.2,12.4,30.28,SSW,200,2.0,5.0,81,0.00,,,0.00,VWS V14.01,2013-01-18 15:31:00,
2013-01-18 10:36:00,16.9,12.9,30.27,SW,217,3.0,6.0,84,0.00,,,0.00,VWS V14.01,2013-01-18 15:36:00,
2013-01-18 10:41:00,16.6,12.9,30.27,WSW,240,3.0,5.0,85,0.00,,,0.00,VWS V14.01,2013-01-18 15:41:00,
2013-01-18 10:46:00,16.6,12.9,30.26,SW,226,8.0,8.0,85,0.00,,,0.00,VWS V14.01,2013-01-18 15:46:00,
2013-01-18 10:51:00,16.5,12.8,30.26,SW,235,5.0,8.0,85,0.00,,,0.00,VWS V14.01,2013-01-18 15:51:00,
2013-01-18 10:56:00,16.4,12.7,30.25,SW,221,5.0,7.0,85,0.00,,,0.00,VWS V14.01,2013-01-18 15:56:00,
2013-01-18 11:01:00,16.3,12.6,30.25,SW,222,3.0,3.0,85,0.00,,,0.00,VWS V14.01,2013-01-18 16:01:00,
2013-01-18 11:06:00,16.4,12.7,30.24,SE,128,5.0,6.0,85,0.00,,,0.00,VWS V14.01,2013-01-18 16:06:00,
2013-01-18 11:11:00,16.3,12.3,30.23,WSW,251,7.0,10.0,84,0.00,,,0.00,VWS V14.01,2013-01-18 16:11:00,
2013-01-18 11:16:00,16.2,12.0,30.23,SSW,204,3.0,6.0,83,0.00,,,0.00,VWS V14.01,2013-01-18 16:16:00,
2013-01-18 11:21:00,16.1,11.9,30.22,South,188,3.0,8.0,83,0.00,,,0.00,VWS V14.01,2013-01-18 16:21:00,
2013-01-18 11:26:00,16.1,12.1,30.22,SW,234,9.0,9.0,84,0.00,,,0.00,VWS V14.01,2013-01-18 16:26:00,
2013-01-18 11:31:00,16.3,12.1,30.22,SSW,207,10.0,10.0,83,0.00,,,0.00,VWS V14.01,2013-01-18 16:31:00,
2013-01-18 11:36:00,16.4,12.1,30.21,SW,216,6.0,8.0,83,0.00,,,0.00,VWS V14.01,2013-01-18 16:36:00,
2013-01-18 11:41:00,16.5,12.2,30.21,ESE,112,10.0,10.0,83,0.00,,,0.00,VWS V14.01,2013-01-18 16:41:00,
2013-01-18 11:46:00,16.4,12.1,30.20,WSW,238,6.0,8.0,83,0.00,,,0.00,VWS V14.01,2013-01-18 16:46:00,
2013-01-18 11:51:00,16.3,12.1,30.20,ESE,110,4.0,6.0,83,0.00,,,0.00,VWS V14.01,2013-01-18 16:51:00,
2013-01-18 11:56:00,16.3,12.1,30.20,SW,234,3.0,7.0,83,0.00,,,0.00,VWS V14.01,2013-01-18 16:56:00,
2013-01-18 12:01:00,16.3,12.3,30.19,SSW,193,4.0,8.0,84,0.00,,,0.00,VWS V14.01,2013-01-18 17:01:00,
2013-01-18 12:06:00,16.3,12.3,30.18,SSW,202,5.0,6.0,84,0.00,,,0.00,VWS V14.01,2013-01-18 17:06:00,
2013-01-18 12:11:00,16.4,12.7,30.18,SE,142,7.0,9.0,85,0.00,,,0.00,VWS V14.01,2013-01-18 17:11:00,
2013-01-18 12:16:00,16.3,12.6,30.17,SSE,156,6.0,6.0,85,0.00,,,0.00,VWS V14.01,2013-01-18 17:16:00,
2013-01-18 12:21:00,16.3,12.6,30.16,SW,227,2.0,6.0,85,0.00,,,0.00,VWS V14.01,2013-01-18 17:21:00,
2013-01-18 12:26:00,16.2,12.5,30.16,SE,124,9.0,9.0,85,0.00,,,0.00,VWS V14.01,2013-01-18 17:26:00,
2013-01-18 12:31:00,16.1,12.7,30.15,SSE,160,6.0,6.0,86,0.00,,,0.00,VWS V14.01,2013-01-18 17:31:00,
2013-01-18 12:36:00,16.0,12.6,30.14,SSE,150,4.0,7.0,86,0.00,,,0.00,VWS V14.01,2013-01-18 17:36:00,
2013-01-18 12:41:00,15.9,12.7,30.14,ESE,106,4.0,4.0,87,0.00,,,0.00,VWS V14.01,2013-01-18 17:41:00,
2013-01-18 12:46:00,15.8,12.6,30.13,SSE,164,3.0,5.0,87,0.00,,,0.00,VWS V14.01,2013-01-18 17:46:00,
2013-01-18 12:51:00,15.9,13.0,30.13,ESE,115,2.0,3.0,88,0.00,,,0.00,VWS V14.01,2013-01-18 17:51:00,
2013-01-18 12:56:00,16.0,12.8,30.12,SE,139,3.0,5.0,87,0.00,,,0.00,VWS V14.01,2013-01-18 17:56:00,
2013-01-18 13:01:00,16.1,12.9,30.11,ENE,71,5.0,5.0,87,0.00,,,0.00,VWS V14.01,2013-01-18 18:01:00,
2013-01-18 13:06:00,16.0,12.8,30.11,SW,235,3.0,7.0,87,0.00,,,0.00,VWS V14.01,2013-01-18 18:06:00,
2013-01-18 13:12:00,16.0,12.8,30.10,SE,128,4.0,5.0,87,0.00,,,0.00,VWS V14.01,2013-01-18 18:12:00,
2013-01-18 13:17:00,16.2,13.0,30.10,SW,216,1.0,2.0,87,0.00,,,0.00,VWS V14.01,2013-01-18 18:17:00,
2013-01-18 13:22:00,16.3,13.1,30.09,SE,128,4.0,6.0,87,0.00,,,0.00,VWS V14.01,2013-01-18 18:22:00,
2013-01-18 13:27:00,16.4,13.2,30.09,South,190,2.0,4.0,87,0.00,,,0.00,VWS V14.01,2013-01-18 18:27:00,
2013-01-18 13:32:00,16.7,13.5,30.09,SE,142,4.0,6.0,87,0.00,,,0.00,VWS V14.01,2013-01-18 18:32:00,
2013-01-18 13:37:00,16.9,13.7,30.09,SE,126,4.0,7.0,87,0.00,,,0.00,VWS V14.01,2013-01-18 18:37:00,
2013-01-18 13:42:00,17.1,13.9,30.08,East,98,2.0,5.0,87,0.00,,,0.00,VWS V14.01,2013-01-18 18:42:00,
2013-01-18 13:47:00,17.1,13.9,30.08,SE,128,5.0,8.0,87,0.00,,,0.00,VWS V14.01,2013-01-18 18:47:00,
2013-01-18 13:52:00,17.0,13.8,30.08,SE,129,5.0,9.0,87,0.00,,,0.00,VWS V14.01,2013-01-18 18:52:00,
2013-01-18 13:57:00,17.0,13.8,30.07,SE,130,5.0,7.0,87,0.00,,,0.00,VWS V14.01,2013-01-18 18:57:00,
2013-01-18 14:02:00,17.0,13.8,30.07,SSE,160,4.0,4.0,87,0.00,,,0.00,VWS V14.01,2013-01-18 19:02:00,
2013-01-18 14:07:00,17.0,13.8,30.06,ESE,122,9.0,10.0,87,0.00,,,0.00,VWS V14.01,2013-01-18 19:07:00,
2013-01-18 14:12:00,17.1,13.9,30.05,SE,125,3.0,7.0,87,0.00,,,0.00,VWS V14.01,2013-01-18 19:12:00,
2013-01-18 14:17:00,17.2,14.0,30.04,SSE,148,5.0,7.0,87,0.00,,,0.00,VWS V14.01,2013-01-18 19:17:00,
2013-01-18 14:22:00,17.2,14.0,30.04,SE,129,7.0,7.0,87,0.00,,,0.00,VWS V14.01,2013-01-18 19:22:00,
2013-01-18 14:27:00,17.1,13.9,30.03,SE,135,6.0,6.0,87,0.00,,,0.00,VWS V14.01,2013-01-18 19:27:00,
2013-01-18 14:32:00,17.0,13.8,30.03,ESE,113,10.0,10.0,87,0.00,,,0.00,VWS V14.01,2013-01-18 19:32:00,
2013-01-18 14:37:00,17.0,13.8,30.02,SE,126,9.0,10.0,87,0.00,,,0.00,VWS V14.01,2013-01-18 19:37:00,
2013-01-18 14:42:00,17.0,13.8,30.02,ESE,114,8.0,9.0,87,0.00,,,0.00,VWS V14.01,2013-01-18 19:42:00,
2013-01-18 14:47:00,16.8,13.6,30.01,SE,138,6.0,7.0,87,0.00,,,0.00,VWS V14.01,2013-01-18 19:47:00,
2013-01-18 14:52:00,16.8,13.6,30.01,SE,129,8.0,12.0,87,0.00,,,0.00,VWS V14.01,2013-01-18 19:52:00,
2013-01-18 14:57:00,16.9,13.7,30.00,SSE,149,4.0,8.0,87,0.00,,,0.00,VWS V14.01,2013-01-18 19:57:00,
2013-01-18 15:02:00,16.9,13.7,30.00,SE,130,8.0,10.0,87,0.00,,,0.00,VWS V14.01,2013-01-18 20:02:00,
2013-01-18 15:07:00,16.9,13.7,30.00,SE,129,5.0,9.0,87,0.00,,,0.00,VWS V14.01,2013-01-18 20:07:00,
2013-01-18 15:12:00,16.9,13.7,30.00,SE,146,11.0,13.0,87,0.00,,,0.00,VWS V14.01,2013-01-18 20:12:00,
2013-01-18 15:17:00,16.8,13.6,29.99,SSE,147,7.0,11.0,87,0.00,,,0.00,VWS V14.01,2013-01-18 20:17:00,
2013-01-18 15:22:00,16.8,13.6,29.99,ESE,123,9.0,9.0,87,0.00,,,0.00,VWS V14.01,2013-01-18 20:22:00,
2013-01-18 15:27:00,16.8,13.6,29.98,SE,130,7.0,12.0,87,0.00,,,0.00,VWS V14.01,2013-01-18 20:27:00,
2013-01-18 15:32:00,16.8,13.6,29.98,SE,132,11.0,12.0,87,0.00,,,0.00,VWS V14.01,2013-01-18 20:32:00,
2013-01-18 15:37:00,16.9,13.7,29.97,SE,143,5.0,9.0,87,0.00,,,0.00,VWS V14.01,2013-01-18 20:37:00,
2013-01-18 15:42:00,17.0,13.8,29.97,South,173,6.0,11.0,87,0.00,,,0.00,VWS V14.01,2013-01-18 20:42:00,
2013-01-18 15:47:00,17.0,13.8,29.96,SE,126,4.0,7.0,87,0.00,,,0.00,VWS V14.01,2013-01-18 20:47:00,
2013-01-18 15:52:00,17.1,14.2,29.96,SE,142,4.0,7.0,88,0.00,,,0.00,VWS V14.01,2013-01-18 20:52:00,
2013-01-18 15:57:00,17.2,14.0,29.95,SE,131,9.0,10.0,87,0.00,,,0.00,VWS V14.01,2013-01-18 20:57:00,
2013-01-18 16:02:00,17.2,14.3,29.95,SE,142,5.0,9.0,88,0.00,,,0.00,VWS V14.01,2013-01-18 21:02:00,
2013-01-18 16:07:00,17.2,14.3,29.94,SE,125,8.0,11.0,88,0.00,,,0.00,VWS V14.01,2013-01-18 21:07:00,
2013-01-18 16:12:00,17.3,14.4,29.94,ESE,117,10.0,10.0,88,0.00,,,0.00,VWS V14.01,2013-01-18 21:12:00,
2013-01-18 16:17:00,17.4,14.5,29.93,ESE,123,5.0,8.0,88,0.00,,,0.00,VWS V14.01,2013-01-18 21:17:00,
2013-01-18 16:22:00,17.4,14.5,29.93,East,90,6.0,13.0,88,0.00,,,0.00,VWS V14.01,2013-01-18 21:22:00,
2013-01-18 16:27:00,17.4,14.5,29.92,SE,126,7.0,9.0,88,0.00,,,0.00,VWS V14.01,2013-01-18 21:27:00,
2013-01-18 16:32:00,17.5,14.6,29.92,ESE,117,10.0,14.0,88,0.00,,,0.00,VWS V14.01,2013-01-18 21:32:00,
2013-01-18 16:37:00,17.5,14.6,29.91,SE,130,9.0,13.0,88,0.00,,,0.00,VWS V14.01,2013-01-18 21:37:00,
2013-01-18 16:42:00,17.6,14.7,29.91,SE,129,8.0,15.0,88,0.00,,,0.00,VWS V14.01,2013-01-18 21:42:00,
2013-01-18 16:47:00,17.7,14.8,29.91,SE,138,8.0,9.0,88,0.00,,,0.00,VWS V14.01,2013-01-18 21:47:00,
2013-01-18 16:52:00,17.7,14.8,29.90,SE,140,2.0,7.0,88,0.00,,,0.00,VWS V14.01,2013-01-18 21:52:00,
2013-01-18 16:57:00,17.8,15.1,29.90,SE,137,9.0,10.0,89,0.00,,,0.00,VWS V14.01,2013-01-18 21:57:00,
2013-01-18 17:02:00,17.9,15.2,29.89,SE,144,7.0,13.0,89,0.00,,,0.00,VWS V14.01,2013-01-18 22:02:00,
2013-01-18 17:07:00,18.0,15.3,29.90,SE,141,5.0,8.0,89,0.00,,,0.00,VWS V14.01,2013-01-18 22:07:00,
2013-01-18 17:12:00,18.0,15.3,29.90,SSE,153,2.0,4.0,89,0.00,,,0.00,VWS V14.01,2013-01-18 22:12:00,
2013-01-18 17:17:00,18.2,15.5,29.89,SE,130,8.0,10.0,89,0.00,,,0.00,VWS V14.01,2013-01-18 22:17:00,
2013-01-18 17:22:00,18.3,15.6,29.89,SE,134,4.0,8.0,89,0.00,,,0.00,VWS V14.01,2013-01-18 22:22:00,
2013-01-18 17:27:00,18.4,15.7,29.89,SE,141,5.0,10.0,89,0.00,,,0.00,VWS V14.01,2013-01-18 22:27:00,
2013-01-18 17:32:00,18.5,15.8,29.88,SE,128,8.0,10.0,89,0.00,,,0.00,VWS V14.01,2013-01-18 22:32:00,
2013-01-18 17:37:00,18.6,15.9,29.88,SE,142,11.0,11.0,89,0.00,,,0.00,VWS V14.01,2013-01-18 22:37:00,
2013-01-18 17:43:00,18.8,16.1,29.87,SE,132,4.0,10.0,89,0.00,,,0.00,VWS V14.01,2013-01-18 22:43:00,
2013-01-18 17:48:00,19.0,16.3,29.87,SE,136,5.0,9.0,89,0.00,,,0.00,VWS V14.01,2013-01-18 22:48:00,
2013-01-18 17:53:00,19.1,16.4,29.87,SE,138,3.0,10.0,89,0.00,,,0.00,VWS V14.01,2013-01-18 22:53:00,
2013-01-18 17:58:00,19.2,16.5,29.86,SE,125,7.0,7.0,89,0.00,,,0.00,VWS V14.01,2013-01-18 22:58:00,
2013-01-18 18:03:00,19.4,16.7,29.86,SE,145,5.0,5.0,89,0.00,,OVC017,0.00,VWS V14.01,2013-01-18 23:03:00,
2013-01-18 18:08:00,19.5,16.8,29.86,SE,138,6.0,7.0,89,0.00,,OVC017,0.00,VWS V14.01,2013-01-18 23:08:00,
2013-01-18 18:13:00,19.7,17.2,29.86,South,173,4.0,8.0,90,0.00,,OVC017,0.00,VWS V14.01,2013-01-18 23:13:00,
2013-01-18 18:18:00,19.9,17.5,29.85,South,173,4.0,6.0,90,0.00,,OVC017,0.00,VWS V14.01,2013-01-18 23:18:00,
2013-01-18 18:23:00,20.1,17.6,29.85,SW,219,3.0,7.0,90,0.00,,OVC017,0.00,VWS V14.01,2013-01-18 23:23:00,
2013-01-18 18:28:00,20.3,17.8,29.84,SE,141,4.0,5.0,90,0.00,,OVC017,0.00,VWS V14.01,2013-01-18 23:28:00,
2013-01-18 18:33:00,20.6,18.1,29.83,SW,232,7.0,7.0,90,0.00,,OVC017,0.00,VWS V14.01,2013-01-18 23:33:00,
2013-01-18 18:38:00,20.9,18.4,29.84,ESE,115,2.0,4.0,90,0.00,,OVC017,0.00,VWS V14.01,2013-01-18 23:38:00,
2013-01-18 18:43:00,21.1,18.6,29.83,SSW,209,5.0,7.0,90,0.00,,OVC017,0.00,VWS V14.01,2013-01-18 23:43:00,
2013-01-18 18:48:00,21.2,18.7,29.83,SW,230,5.0,5.0,90,0.00,,OVC017,0.00,VWS V14.01,2013-01-18 23:48:00,
2013-01-18 18:53:00,21.2,18.5,29.83,ESE,110,2.0,3.0,89,0.00,,OVC017,0.00,VWS V14.01,2013-01-18 23:53:00,
2013-01-18 18:58:00,21.3,18.6,29.83,SE,134,3.0,4.0,89,0.00,,OVC017,0.00,VWS V14.01,2013-01-18 23:58:00,
2013-01-18 19:03:00,21.4,18.9,29.83,SE,143,2.0,4.0,90,0.00,,OVC021,0.00,VWS V14.01,2013-01-19 00:03:00,
2013-01-18 19:08:00,21.5,19.0,29.82,SSE,151,1.0,3.0,90,0.00,,OVC021,0.00,VWS V14.01,2013-01-19 00:08:00,
2013-01-18 19:13:00,21.8,19.3,29.82,SW,234,2.0,3.0,90,0.00,,OVC021,0.00,VWS V14.01,2013-01-19 00:13:00,
2013-01-18 19:18:00,22.1,19.9,29.82,SSE,149,3.0,7.0,91,0.00,,OVC021,0.00,VWS V14.01,2013-01-19 00:18:00,
2013-01-18 19:23:00,22.6,20.4,29.81,SW,215,1.0,3.0,91,0.00,,OVC021,0.00,VWS V14.01,2013-01-19 00:23:00,
2013-01-18 19:28:00,23.1,20.9,29.81,SSW,213,3.0,6.0,91,0.00,,OVC021,0.00,VWS V14.01,2013-01-19 00:28:00,
2013-01-18 19:33:00,23.4,20.9,29.81,WSW,242,5.0,7.0,90,0.00,,OVC021,0.00,VWS V14.01,2013-01-19 00:33:00,
2013-01-18 19:38:00,23.6,21.1,29.81,WSW,253,3.0,5.0,90,0.00,,OVC021,0.00,VWS V14.01,2013-01-19 00:38:00,
2013-01-18 19:43:00,23.7,21.2,29.81,SW,226,4.0,5.0,90,0.00,,OVC021,0.00,VWS V14.01,2013-01-19 00:43:00,
2013-01-18 19:48:00,23.8,21.3,29.81,SSW,205,2.0,6.0,90,0.00,,OVC021,0.00,VWS V14.01,2013-01-19 00:48:00,
2013-01-18 19:53:00,23.9,21.4,29.80,SW,233,3.0,5.0,90,0.00,,OVC021,0.00,VWS V14.01,2013-01-19 00:53:00,
2013-01-18 19:58:00,24.0,21.5,29.80,SW,223,3.0,4.0,90,0.00,,OVC021,0.00,VWS V14.01,2013-01-19 00:58:00,
2013-01-18 20:03:00,24.3,22.1,29.79,SW,227,5.0,6.0,91,0.00,,OVC029,0.00,VWS V14.01,2013-01-19 01:03:00,
2013-01-18 20:08:00,24.5,22.0,29.79,SW,219,7.0,7.0,90,0.00,,OVC029,0.00,VWS V14.01,2013-01-19 01:08:00,
2013-01-18 20:13:00,25.0,23.0,29.79,SSW,202,2.0,5.0,92,0.00,,OVC029,0.00,VWS V14.01,2013-01-19 01:13:00,
2013-01-18 20:18:00,25.8,23.8,29.79,SW,225,3.0,4.0,92,0.00,,OVC029,0.00,VWS V14.01,2013-01-19 01:18:00,
2013-01-18 20:23:00,26.5,24.8,29.79,SW,231,5.0,5.0,93,0.00,,OVC029,0.00,VWS V14.01,2013-01-19 01:23:00,
2013-01-18 20:28:00,27.4,25.6,29.79,SW,214,4.0,6.0,93,0.00,,OVC029,0.00,VWS V14.01,2013-01-19 01:28:00,
2013-01-18 20:34:00,28.0,26.0,29.78,West,271,5.0,7.0,92,0.00,,OVC029,0.00,VWS V14.01,2013-01-19 01:34:00,
2013-01-18 20:39:00,28.7,26.7,29.78,SSW,209,2.0,3.0,92,0.00,,OVC029,0.00,VWS V14.01,2013-01-19 01:39:00,
2013-01-18 20:44:00,28.9,26.6,29.79,NNW,344,3.0,5.0,91,0.00,,OVC029,0.00,VWS V14.01,2013-01-19 01:44:00,
2013-01-18 20:49:00,28.9,26.6,29.78,SW,214,3.0,4.0,91,0.00,,OVC029,0.00,VWS V14.01,2013-01-19 01:49:00,
2013-01-18 20:54:00,29.1,27.1,29.78,SSW,203,1.0,2.0,92,0.00,,OVC029,0.00,VWS V14.01,2013-01-19 01:54:00,
2013-01-18 20:59:00,29.4,27.4,29.78,NNW,329,1.0,2.0,92,0.00,,OVC029,0.00,VWS V14.01,2013-01-19 01:59:00,
2013-01-18 21:04:00,29.5,27.7,29.78,North,11,3.0,3.0,93,0.00,,OVC029,0.00,VWS V14.01,2013-01-19 02:04:00,
2013-01-18 21:09:00,29.6,27.8,29.78,NNW,344,0.0,2.0,93,0.00,,OVC029,0.00,VWS V14.01,2013-01-19 02:09:00,
2013-01-18 21:14:00,29.8,28.0,29.78,NW,306,3.0,4.0,93,0.00,,OVC029,0.00,VWS V14.01,2013-01-19 02:14:00,
2013-01-18 21:19:00,30.0,28.5,29.78,West,279,4.0,6.0,94,0.00,,OVC029,0.00,VWS V14.01,2013-01-19 02:19:00,
2013-01-18 21:24:00,30.2,28.7,29.78,WSW,257,1.0,2.0,94,0.00,,OVC029,0.00,VWS V14.01,2013-01-19 02:24:00,
2013-01-18 21:29:00,30.3,28.5,29.78,NNW,335,4.0,4.0,93,0.00,,OVC029,0.00,VWS V14.01,2013-01-19 02:29:00,
2013-01-18 21:34:00,30.3,28.5,29.78,NW,308,4.0,5.0,93,0.00,,OVC029,0.00,VWS V14.01,2013-01-19 02:34:00,
2013-01-18 21:39:00,30.3,28.5,29.78,NW,323,3.0,5.0,93,0.00,,OVC029,0.00,VWS V14.01,2013-01-19 02:39:00,
2013-01-18 21:44:00,30.3,28.3,29.77,NW,307,1.0,2.0,92,0.00,,OVC029,0.00,VWS V14.01,2013-01-19 02:44:00,
2013-01-18 21:49:00,30.3,28.3,29.77,WNW,283,3.0,6.0,92,0.00,,OVC029,0.00,VWS V14.01,2013-01-19 02:49:00,
2013-01-18 21:54:00,30.2,28.4,29.77,NNW,328,4.0,4.0,93,0.00,,OVC029,0.00,VWS V14.01,2013-01-19 02:54:00,
2013-01-18 21:59:00,30.1,28.3,29.77,NW,321,4.0,4.0,93,0.00,,OVC029,0.00,VWS V14.01,2013-01-19 02:59:00,
2013-01-18 22:04:00,29.8,27.8,29.77,WNW,300,2.0,4.0,92,0.00,,,0.00,VWS V14.01,2013-01-19 03:04:00,
2013-01-18 22:09:00,29.6,27.6,29.77,North,357,3.0,4.0,92,0.00,,,0.00,VWS V14.01,2013-01-19 03:09:00,
2013-01-18 22:14:00,29.2,26.9,29.77,North,7,3.0,3.0,91,0.00,,,0.00,VWS V14.01,2013-01-19 03:14:00,
2013-01-18 22:19:00,28.7,26.4,29.77,North,351,1.0,3.0,91,0.00,,,0.00,VWS V14.01,2013-01-19 03:19:00,
2013-01-18 22:24:00,28.5,26.2,29.77,NNE,17,3.0,4.0,91,0.00,,,0.00,VWS V14.01,2013-01-19 03:24:00,
2013-01-18 22:29:00,28.0,25.7,29.77,NNE,19,5.0,5.0,91,0.00,,,0.00,VWS V14.01,2013-01-19 03:29:00,
2013-01-18 22:34:00,27.8,25.8,29.77,NNW,328,2.0,3.0,92,0.00,,,0.00,VWS V14.01,2013-01-19 03:34:00,
2013-01-18 22:39:00,27.5,25.5,29.76,NNE,21,7.0,8.0,92,0.00,,,0.00,VWS V14.01,2013-01-19 03:39:00,
2013-01-18 22:44:00,27.3,25.3,29.76,North,357,3.0,4.0,92,0.00,,,0.00,VWS V14.01,2013-01-19 03:44:00,
2013-01-18 22:49:00,27.2,24.9,29.76,NNE,13,3.0,4.0,91,0.00,,OVC013,0.00,VWS V14.01,2013-01-19 03:49:00,
2013-01-18 22:54:00,27.0,25.0,29.77,NW,320,3.0,5.0,92,0.00,,OVC013,0.00,VWS V14.01,2013-01-19 03:54:00,
2013-01-18 22:59:00,26.8,24.5,29.76,North,357,4.0,5.0,91,0.00,,OVC013,0.00,VWS V14.01,2013-01-19 03:59:00,
2013-01-18 23:04:00,26.7,24.4,29.76,NW,325,1.0,2.0,91,0.00,,,0.00,VWS V14.01,2013-01-19 04:04:00,
2013-01-18 23:09:00,26.6,24.3,29.76,NNW,348,3.0,3.0,91,0.00,,,0.00,VWS V14.01,2013-01-19 04:09:00,
2013-01-18 23:14:00,26.5,24.2,29.76,North,357,5.0,5.0,91,0.00,,,0.00,VWS V14.01,2013-01-19 04:14:00,
2013-01-18 23:19:00,26.4,24.1,29.75,North,11,1.0,2.0,91,0.00,,,0.00,VWS V14.01,2013-01-19 04:19:00,
2013-01-18 23:24:00,26.3,24.0,29.76,NNW,331,2.0,2.0,91,0.00,,,0.00,VWS V14.01,2013-01-19 04:24:00,
2013-01-18 23:29:00,26.2,23.9,29.75,NNE,20,2.0,2.0,91,0.00,,,0.00,VWS V14.01,2013-01-19 04:29:00,
2013-01-18 23:34:00,26.1,23.8,29.75,NE,43,3.0,3.0,91,0.00,,,0.00,VWS V14.01,2013-01-19 04:34:00,
2013-01-18 23:39:00,26.1,23.8,29.75,NNE,21,3.0,3.0,91,0.00,,,0.00,VWS V14.01,2013-01-19 04:39:00,
2013-01-18 23:44:00,26.1,23.8,29.76,North,357,3.0,4.0,91,0.00,,,0.00,VWS V14.01,2013-01-19 04:44:00,
2013-01-18 23:49:00,26.1,23.8,29.76,NNW,346,5.0,6.0,91,0.00,,,0.00,VWS V14.01,2013-01-19 04:49:00,
2013-01-18 23:54:00,26.0,23.7,29.76,NNW,333,3.0,4.0,91,0.00,,,0.00,VWS V14.01,2013-01-19 04:54:00,
2013-01-18 23:59:00,25.9,23.6,29.76,North,352,3.0,5.0,91,0.00,,,0.00,VWS V14.01,2013-01-19 04:59:00,